Regional Weather Roundup
Issued by NWS Northern Indiana

Home | Current Version | Previous Version | Text Only | Print | Product List | Glossary On
Versions: 1 2 3 4 5 6 7 8 9 10 11 12 13 14 15 16 17 18 19 20 21 22 23 24 25 26 27 28 29 30 31 32 33 34 35 36 37 38 39 40 41 42 43 44 45 46 47 48 49 50
000
ASUS43 KIWX 300110
RWRIWX

KIWX WEATHER ROUNDUP
NATIONAL WEATHER SERVICE NORTHERN INDIANA
900 PM EDT MON AUG 29 2016

NOTE: "FAIR" INDICATES FEW OR NO CLOUDS BELOW 12,000 FEET WITH NO
SIGNIFICANT WEATHER AND/OR OBSTRUCTIONS TO VISIBILITY.

* THESE STATIONS ARE NOT UNDER NWS QUALITY CONTROL. THEY ALSO MAY NOT
  REPORT WEATHER SUCH AS PRECIPITATION OR FOG.

INZ001>027-300200-
NORTHERN INDIANA

CITY           SKY/WX    TMP DP  RH WIND       PRES   REMARKS
GARY*          MOCLDY    77  75  94 NE5       30.18S
VALPARAISO     MOCLDY    77  73  87 NE3       30.18S
MICHIGAN CITY* CLOUDY    73  73 100 CALM      30.19S
LAPORTE*       MOCLDY   N/A N/A N/A CALM      30.19S
KNOX*          PTCLDY    73  59  60 CALM      30.18R
SOUTH BEND     PTCLDY    79  72  79 CALM      30.19S
ELKHART*       CLEAR    N/A N/A N/A CALM      30.18F
GOSHEN         PTCLDY    76  70  82 CALM      30.19S
MONTICELLO*    CLEAR     78  70  76 CALM      30.16S
LOGANSPORT*    CLEAR     73  72  94 CALM      30.18S
ROCHESTER*     CLEAR     77  73  88 CALM      30.19R
WARSAW*        PTCLDY    73  72  94 CALM      30.20R
ANGOLA*        PTCLDY    73  70  88 CALM      30.21S
FORT WAYNE     PTCLDY    76  69  79 E3        30.20R
HUNTINGTON*    CLEAR     75  72  89 CALM      30.19S
MARION*        CLEAR     75  71  87 CALM      30.19S

$$
INZ028>050-300200-
CENTRAL INDIANA

CITY           SKY/WX    TMP DP  RH WIND       PRES   REMARKS
LAFAYETTE      CLEAR     79  73  82 CALM      30.15S
KOKOMO*        CLEAR     77  72  83 E6        30.18S
MUNCIE*        CLEAR     76  72  87 NE3       30.19R
INDIANAPOLIS   PTCLDY    83  70  64 E8        30.15S

$$
MIZ043>046-050>051-056>058-064>065-071>073-077>080-300200-
SOUTHWEST LOWER MICHIGAN

CITY           SKY/WX    TMP DP  RH WIND       PRES   REMARKS
BATTLE CREEK   CLEAR     74  70  87 S3        30.21S
BENTON HARBOR  PTCLDY    76  71  85 CALM      30.18S
COLDWATER*     CLEAR     73  71  95 CALM      30.21R
HILLSDALE*     CLEAR     70  67  89 SE3       30.22R
HOLLAND        PTCLDY    74  69  85 CALM      30.20S
GRAND RAPIDS   PTCLDY    77  68  73 S5        30.20S
KALAMAZOO      CLEAR     77  69  76 CALM      30.20S
STURGIS*       CLEAR     73  70  89 CALM      30.20S
THREE RIVERS*  FAIR      76  72  86 CALM      30.21R

$$
OHZ001>008-015>018-024>025-300200-
NORTHWEST OHIO

CITY           SKY/WX    TMP DP  RH WIND       PRES   REMARKS
WAUSEON*       FAIR      70  68  94 E6        30.22R
DEFIANCE       CLEAR     76  67  73 NE5       30.20R
FINDLAY        CLEAR     77  63  61 NE9       30.20R
TOLEDO EXPRESS CLEAR     71  65  81 E3        30.21R
TOLEDO METCALF CLEAR     73  67  81 CALM      30.22R
LIMA           CLEAR     74  70  87 NE5       30.21R

$$
AND FOR LAKE MICHIGAN COASTAL AND OPEN LAKE BUOY OBSERVATIONS

STATION/POSITION TEMP    WIND        PRES    VSBY  WAVE
                 AIR SEA DIR/SP/G                  HT/PER
                 (F)     (DEG/KT/KT) (MB)    (MI)  (FT/S)
CALUMET HARBOR    75                 1021.7
MICHIGAN CITY     75      40/ 10/ 10   N/A
BURNS HARBOR      73      80/  8/  9 1022.0F
SAINT JOSEPH      77      CALM  /  2 1022.7S
SOUTH LAKE BUOY   76 78   80/  4/  4 1021.6F         0
4 MI NW BRIDGMAN  76 76   30/  8/  8 1021.5F         1
MICHIGAN CITY     76 76   70/  6/  8   N/A           1/ 3

$$
&&




USA.gov is the U.S. government's official web portal to all federal, state and local government web resources and services.